[[{"header":{"parameterUnit":"m.s-1","parameterCategory":1,"la1":30.2992,"la2":30.254,"lo1":-89.0895,"lo2":-89.0443,"dy":0.0025,"dx":0.0025,"nx":19,"ny":19,"refTime":"2026-04-08T09:00:00:Z","depth":0,"parameterNumber":2,"parameterNumberName":"U-component_of_WINDS"},"data":[0,0,0,-4.181,-4.1815,-4.1995,-4.1995,-4.2265,-4.2268,0,0,0,0,0,0,0,0,0,0,0,-4.1778,-4.178,-4.181,-4.1815,-4.1994,-4.1995,-4.2265,-4.2268,0,0,0,0,0,0,0,0,0,0,0,-4.1777,-4.178,-4.1783,-4.1816,-4.1994,-4.1995,-4.2264,-4.2115,0,0,0,0,0,0,0,0,0,0,-4.1934,-4.1923,-4.1779,-4.1783,-4.1817,-4.1994,-4.1995,-4.2107,-4.2124,-4.22,0,-4.227,0,-4.2273,-4.2288,-4.229,0,0,0,-4.18,-4.1909,-4.1938,-4.1783,-4.1819,-4.1994,-4.1909,-4.2116,-4.2136,-4.2223,-4.2273,-4.2282,-4.2278,-4.229,-4.2292,-4.2769,-4.2772,0,0,-4.1791,-4.1822,-4.1925,-4.1952,-4.1923,-4.1904,-4.1915,-4.2128,-4.2186,-4.2274,-4.2288,-4.2282,-4.2292,-4.2295,-4.2766,-4.277,0,0,0,-4.1772,-4.1816,-4.1839,-4.1942,-4.1971,-4.1909,-4.1922,-4.2176,-4.2181,-4.2291,-4.2285,-4.2294,-4.2298,-4.2763,-4.2768,-4.2942,0,0,0,-4.1765,-4.1805,-4.1836,-4.1857,-4.1968,-4.2075,-4.1967,-4.2166,-4.2189,-4.2284,-4.2294,-4.2301,-4.276,-4.2765,-4.293,-4.302,0,0,0,-4.1759,-4.1804,-4.1837,-4.1858,-4.1936,-4.2071,-4.2087,-4.217,-4.2187,-4.229,-4.2302,-4.2758,-4.2764,-4.292,-4.3003,-4.3156,0,0,0,-4.1763,-4.199,-4.184,-4.2092,-4.1935,-4.2176,-4.2085,-4.2264,-4.2373,-4.2296,-4.276,-4.2767,-4.2916,-4.2992,-4.3145,-4.3292,-4.3355,0,0,-4.2068,-4.2028,-4.2174,-4.2045,-4.232,-4.2146,-4.2449,-4.252,-4.2502,-4.2682,-4.2693,-4.2934,-4.3002,-4.3154,-4.3697,-4.3747,0,0,0,-4.2282,-4.2387,-4.2453,-4.2557,-4.2614,-4.2673,-4.2693,-4.272,-4.287,-4.26,-4.3029,-4.3068,-4.3156,-4.3225,-4.3268,-4.3343,-4.28,-4.2799,-4.2798,-4.2761,-4.2723,-4.2963,-4.2948,-4.305,-4.3069,-4.3149,-4.3189,-4.3123,-4.3225,-4.3279,-4.3613,-4.3694,-4.3726,-4.3805,-4.3352,-4.3353,-4.3353,-4.3354,-4.3206,-4.335,-4.3255,-4.3454,-4.3415,-4.3583,-4.3611,-4.3558,-4.3711,-4.3569,-4.3645,-4.3494,-4.3783,-4.385,-4.3366,-4.3364,-4.3363,-4.3361,-4.336,-4.3517,-4.358,-4.3606,-4.3752,-4.387,-4.3847,-4.3998,-4.3957,-4.392,-4.3995,-4.4049,-4.4046,-4.404,-4.4023,-4.4024,-4.4025,-4.4026,-4.4027,-4.4028,-4.383,-4.3854,-4.3984,-4.4065,-4.4126,-4.4202,-4.4224,-4.4285,-4.4342,-4.4301,-4.4301,-4.4228,-4.3817,-4.3716,-4.4046,-4.4042,-4.404,-4.4038,-4.4037,-4.4299,-4.4186,-4.4387,-4.4449,-4.4541,-4.4662,-4.4606,-4.4735,-4.4779,-4.4856,-4.4765,-4.4467,-4.4425,-4.439,-4.4307,-4.477,-4.477,-4.477,-4.477,-4.4563,-4.4536,-4.4733,-4.4835,-4.493,-4.49,-4.5133,-4.5154,-4.5158,-4.5184,-4.511,-4.4995,-4.4962,-4.494,-4.4893,-4.4815,-4.5397,-4.5397,-4.5398,-4.485,-4.483,-4.5035,-4.5033,-4.5103,-4.5164,-4.5383,-4.5507,-4.5488,-4.5422,-4.5204,-4.5178,-4.4991,-4.4932,-4.4863,-4.4792,-4.4647,0,0]},{"header":{"parameterUnit":"m.s-1","parameterCategory":1,"la1":30.2992,"la2":30.254,"lo1":-89.0895,"lo2":-89.0443,"dy":0.0025,"dx":0.0025,"nx":19,"ny":19,"refTime":"2026-04-08T09:00:00:Z","depth":0,"parameterNumber":3,"parameterNumberName":"V-component_of_WINDS"},"data":[0,0,0,-0.675,-0.6752,-0.6847,-0.6848,-0.6951,-0.6952,0,0,0,0,0,0,0,0,0,0,0,-0.6712,-0.6712,-0.675,-0.6752,-0.6847,-0.6848,-0.6951,-0.6952,0,0,0,0,0,0,0,0,0,0,0,-0.6712,-0.6712,-0.6712,-0.6753,-0.6847,-0.6848,-0.6951,-0.6885,0,0,0,0,0,0,0,0,0,0,-0.6796,-0.6751,-0.6712,-0.6712,-0.6753,-0.6847,-0.6848,-0.6883,-0.689,-0.6901,0,-0.6908,0,-0.6931,-0.6958,-0.6958,0,0,0,-0.676,-0.6745,-0.678,-0.6712,-0.6754,-0.6847,-0.6806,-0.6887,-0.6894,-0.691,-0.691,-0.6914,-0.6933,-0.6958,-0.6959,-0.6997,-0.6996,0,0,-0.6755,-0.6723,-0.6774,-0.6784,-0.6769,-0.6803,-0.6809,-0.6892,-0.6889,-0.691,-0.6917,-0.6935,-0.6959,-0.696,-0.6997,-0.6997,0,0,0,-0.6734,-0.6719,-0.6753,-0.6779,-0.6798,-0.6806,-0.6813,-0.6886,-0.6899,-0.6918,-0.6936,-0.6959,-0.696,-0.6997,-0.6997,-0.6957,0,0,0,-0.6732,-0.6707,-0.675,-0.6731,-0.6796,-0.6843,-0.6805,-0.6894,-0.6904,-0.6936,-0.6959,-0.6961,-0.6997,-0.6997,-0.6958,-0.6943,0,0,0,-0.6709,-0.6705,-0.6715,-0.673,-0.6769,-0.6843,-0.6861,-0.6897,-0.6915,-0.6958,-0.6962,-0.6998,-0.6997,-0.696,-0.6945,-0.6943,0,0,0,-0.6676,-0.6678,-0.6714,-0.6723,-0.6768,-0.6817,-0.6861,-0.6899,-0.6931,-0.696,-0.6997,-0.6997,-0.696,-0.6947,-0.6945,-0.6936,-0.6929,0,0,-0.6661,-0.6675,-0.6684,-0.6718,-0.6752,-0.6805,-0.6834,-0.6893,-0.6926,-0.6971,-0.6973,-0.6958,-0.6945,-0.6944,-0.6903,-0.6898,0,0,0,-0.6668,-0.6673,-0.669,-0.6719,-0.6764,-0.6802,-0.6861,-0.6883,-0.6922,-0.6943,-0.6958,-0.6951,-0.6951,-0.6949,-0.6944,-0.6946,-0.6994,-0.6994,-0.6994,-0.6602,-0.6644,-0.666,-0.6713,-0.6741,-0.6801,-0.6828,-0.6868,-0.6902,-0.6905,-0.6918,-0.6889,-0.6884,-0.6881,-0.6882,-0.6917,-0.6917,-0.6917,-0.6917,-0.6584,-0.6598,-0.6644,-0.6675,-0.6719,-0.6747,-0.6804,-0.6827,-0.6859,-0.6882,-0.6884,-0.6906,-0.6873,-0.6877,-0.6914,-0.6915,-0.6915,-0.6915,-0.6915,-0.6546,-0.656,-0.6586,-0.6632,-0.6663,-0.6717,-0.6745,-0.6784,-0.6822,-0.6824,-0.6842,-0.6843,-0.6848,-0.683,-0.683,-0.6829,-0.6829,-0.6829,-0.6829,-0.6495,-0.6526,-0.6545,-0.6593,-0.6616,-0.6652,-0.6712,-0.6737,-0.6774,-0.68,-0.6801,-0.6834,-0.6863,-0.6869,-0.6828,-0.6828,-0.6828,-0.6828,-0.6829,-0.6461,-0.6475,-0.6503,-0.6527,-0.6586,-0.6614,-0.6663,-0.6709,-0.6735,-0.6748,-0.6781,-0.6796,-0.6813,-0.6817,-0.6822,-0.6772,-0.6772,-0.6772,-0.6772,-0.6428,-0.6441,-0.6479,-0.6513,-0.6552,-0.66,-0.663,-0.6676,-0.6727,-0.6745,-0.6758,-0.6769,-0.6771,-0.6787,-0.6792,-0.6797,-0.6742,-0.6742,-0.6742,-0.6409,-0.6427,-0.6446,-0.6495,-0.6544,-0.6585,-0.6614,-0.6653,-0.6712,-0.6741,-0.676,-0.6762,-0.6779,-0.6783,-0.6812,-0.6818,-0.6829,0,0]}]]